| time (UTC) | temp F | wind direction | speed MPH | gust MPH | rain 1hr in | rain 24hr in | rain mn in | humidity % | barometer mb |
| 20260505140545 | 51 | 311 | 0.0 | 0.0 | 0.00 | 0.00 | 0.00 | 87 | 1021.2 |
| 20260505124145 | 53 | 139 | 0.0 | 0.0 | 0.00 | 0.00 | 0.00 | 84 | 1020.5 |
| 20260505122947 | 54 | 202 | 0.0 | 0.0 | 0.00 | 0.00 | 0.00 | 82 | 1020.4 |
| 20260505121818 | 54 | 271 | 0.0 | 0.0 | 0.00 | 0.00 | 0.00 | 81 | 1020.3 |
| 20260505120618 | 54 | 201 | 0.0 | 0.0 | 0.00 | 0.00 | 0.00 | 79 | 1020.2 |
| 20260505115419 | 55 | 216 | 1.0 | 2.0 | 0.00 | 0.00 | 0.00 | 78 | 1019.9 |
| 20260505114218 | 55 | 296 | 1.0 | 1.0 | 0.00 | 0.00 | 0.00 | 77 | 1019.9 |
| 20260505113018 | 56 | 158 | 2.0 | 3.0 | 0.00 | 0.00 | 0.00 | 75 | 1019.6 |
| 20260505111818 | 56 | 240 | 2.0 | 3.0 | 0.00 | 0.00 | 0.00 | 74 | 1019.2 |
| 20260505110619 | 57 | 231 | 1.0 | 2.0 | 0.00 | 0.00 | 0.00 | 73 | 1019.4 |
| 20260505101819 | 59 | 290 | 1.0 | 2.0 | 0.00 | 0.00 | 0.00 | 68 | 1018.4 |
| 20260505100617 | 60 | 304 | 0.0 | 0.0 | 0.00 | 0.00 | 0.00 | 65 | 1018.4 |
| 20260505095419 | 62 | 300 | 2.0 | 3.0 | 0.00 | 0.00 | 0.00 | 62 | 1018.4 |
| 20260505094219 | 64 | 170 | 3.0 | 7.0 | 0.00 | 0.00 | 0.00 | 54 | 1017.9 |
| 20260505093018 | 65 | 127 | 8.0 | 12.0 | 0.00 | 0.00 | 0.00 | 54 | 1018.1 |
| 20260505090619 | 66 | 119 | 13.0 | 17.0 | 0.00 | 0.00 | 0.00 | 52 | 1017.5 |
| 20260505085419 | 66 | 137 | 13.0 | 18.0 | 0.00 | 0.00 | 0.00 | 50 | 1017.5 |
| 20260505084219 | 67 | 130 | 12.0 | 17.0 | 0.00 | 0.00 | 0.00 | 48 | 1017.4 |
| 20260505083018 | 67 | 130 | 16.0 | 22.0 | 0.00 | 0.00 | 0.00 | 47 | 1017.1 |
| 20260505081819 | 68 | 173 | 13.0 | 25.0 | 0.00 | 0.00 | 0.00 | 45 | 1017.1 |
| 20260505080618 | 68 | 219 | 14.0 | 21.0 | 0.00 | 0.00 | 0.00 | 43 | 1017.0 |
| 20260505075417 | 69 | 187 | 7.0 | 14.0 | 0.00 | 0.00 | 0.00 | 42 | 1016.9 |
| 20260505074219 | 69 | 113 | 7.0 | 15.0 | 0.00 | 0.00 | 0.00 | 41 | 1017.1 |
| 20260505073017 | 69 | 86 | 6.0 | 15.0 | 0.00 | 0.00 | 0.00 | 40 | 1016.4 |
| 20260505071818 | 70 | 88 | 6.0 | 18.0 | 0.00 | 0.00 | 0.00 | 38 | 1016.6 |
| 20260505070619 | 70 | 61 | 7.0 | 17.0 | 0.00 | 0.00 | 0.00 | 37 | 1016.6 |
| 20260505065418 | 71 | 121 | 9.0 | 18.0 | 0.00 | 0.00 | 0.00 | 36 | 1016.5 |
| 20260505064219 | 71 | 42 | 6.0 | 10.0 | 0.00 | 0.00 | 0.00 | 35 | 1016.5 |
| 20260505063019 | 71 | 135 | 2.0 | 7.0 | 0.00 | 0.00 | 0.00 | 34 | 1016.4 |
| 20260505061818 | 71 | 172 | 2.0 | 5.0 | 0.00 | 0.00 | 0.00 | 33 | 1016.3 |
| 20260505060617 | 71 | 130 | 5.0 | 10.0 | 0.00 | 0.00 | 0.00 | 32 | 1016.3 |
| 20260505055418 | 73 | 163 | 5.0 | 8.0 | 0.00 | 0.00 | 0.00 | 31 | 1016.1 |
| 20260505053018 | 71 | 116 | 13.0 | 20.0 | 0.00 | 0.00 | 0.00 | 30 | 1016.8 |
| 20260505051817 | 72 | 101 | 12.0 | 18.0 | 0.00 | 0.00 | 0.00 | 30 | 1016.7 |
| 20260505050617 | 71 | 112 | 8.0 | 14.0 | 0.00 | 0.00 | 0.00 | 30 | 1016.8 |
| 20260505040619 | 71 | 9 | 5.0 | 8.0 | 0.00 | 0.00 | 0.00 | 30 | 1017.2 |
| 20260505035418 | 71 | 32 | 2.0 | 6.0 | 0.00 | 0.00 | 0.00 | 29 | 1017.2 |
| 20260505033019 | 70 | 19 | 3.0 | 5.0 | 0.00 | 0.00 | 0.00 | 28 | 1017.3 |
| 20260505031818 | 69 | 358 | 1.0 | 5.0 | 0.00 | 0.00 | 0.00 | 29 | 1017.4 |
| 20260505025418 | 69 | 51 | 6.0 | 12.0 | 0.00 | 0.00 | 0.00 | 28 | 1017.4 |
| 20260505024217 | 68 | 96 | 9.0 | 10.0 | 0.00 | 0.00 | 0.00 | 28 | 1017.4 |
| 20260505023018 | 69 | 69 | 3.0 | 6.0 | 0.00 | 0.00 | 0.00 | 28 | 1017.5 |
| 20260505021819 | 68 | 105 | 5.0 | 7.0 | 0.00 | 0.00 | 0.00 | 29 | 1017.9 |
| 20260505020618 | 68 | 84 | 5.0 | 10.0 | 0.00 | 0.00 | 0.00 | 30 | 1018.0 |
| 20260505015419 | 66 | 177 | 3.0 | 6.0 | 0.00 | 0.00 | 0.00 | 30 | 1017.6 |
| 20260505014217 | 67 | 22 | 5.0 | 9.0 | 0.00 | 0.00 | 0.00 | 31 | 1017.9 |
| 20260505013019 | 67 | 28 | 3.0 | 7.0 | 0.00 | 0.00 | 0.00 | 31 | 1018.0 |
| 20260505011818 | 65 | 82 | 5.0 | 7.0 | 0.00 | 0.00 | 0.00 | 31 | 1018.2 |
| 20260505005418 | 64 | 70 | 7.0 | 10.0 | 0.00 | 0.00 | 0.00 | 33 | 1018.0 |
| 20260505004218 | 64 | 63 | 5.0 | 8.0 | 0.00 | 0.00 | 0.00 | 34 | 1017.8 |
| 20260505003018 | 63 | 101 | 5.0 | 8.0 | 0.00 | 0.00 | 0.00 | 34 | 1017.8 |
| 20260505001818 | 64 | 11 | 0.0 | 3.0 | 0.00 | 0.00 | 0.00 | 37 | 1018.0 |
| 20260505000618 | 61 | 198 | 3.0 | 7.0 | 0.00 | 0.00 | 0.00 | 36 | 1017.9 |
| 20260504235417 | 62 | 178 | 1.0 | 2.0 | 0.00 | 0.00 | 0.00 | 37 | 1018.1 |
| 20260504234218 | 62 | 113 | 5.0 | 8.0 | 0.00 | 0.00 | 0.00 | 38 | 1017.9 |
| 20260504233017 | 62 | 72 | 0.0 | 2.0 | 0.00 | 0.00 | 0.00 | 38 | 1018.3 |
| 20260504231818 | 62 | 108 | 3.0 | 7.0 | 0.00 | 0.00 | 0.00 | 38 | 1018.3 |
| 20260504230620 | 62 | 101 | 1.0 | 3.0 | 0.00 | 0.00 | 0.00 | 39 | 1018.4 |
| 20260504225418 | 59 | 5 | 1.0 | 5.0 | 0.00 | 0.00 | 0.00 | 43 | 1018.3 |
| 20260504223018 | 60 | 109 | 0.0 | 0.0 | 0.00 | 0.00 | 0.00 | 50 | 1018.4 |
| 20260504221817 | 56 | 91 | 1.0 | 5.0 | 0.00 | 0.00 | 0.00 | 57 | 1018.4 |
| 20260504220620 | 57 | 118 | 0.0 | 2.0 | 0.00 | 0.00 | 0.00 | 54 | 1018.0 |
| 20260504215418 | 55 | 240 | 1.0 | 3.0 | 0.00 | 0.00 | 0.00 | 56 | 1017.9 |
| 20260504214218 | 53 | 209 | 2.0 | 3.0 | 0.00 | 0.00 | 0.00 | 59 | 1017.5 |
| 20260504213017 | 52 | 243 | 2.0 | 5.0 | 0.00 | 0.00 | 0.00 | 60 | 1017.5 |
| 20260504211819 | 51 | 294 | 5.0 | 7.0 | 0.00 | 0.00 | 0.00 | 63 | 1017.2 |
| 20260504210620 | 51 | 247 | 5.0 | 6.0 | 0.00 | 0.00 | 0.00 | 64 | 1017.1 |
| 20260504205417 | 51 | 272 | 2.0 | 3.0 | 0.00 | 0.00 | 0.00 | 61 | 1017.0 |
| 20260504204217 | 49 | 268 | 2.0 | 5.0 | 0.00 | 0.00 | 0.00 | 64 | 1016.9 |
| 20260504203017 | 48 | 252 | 5.0 | 7.0 | 0.00 | 0.00 | 0.00 | 70 | 1016.5 |
| 20260504201817 | 47 | 267 | 5.0 | 6.0 | 0.00 | 0.00 | 0.00 | 73 | 1016.5 |
| 20260504200617 | 47 | 206 | 2.0 | 2.0 | 0.00 | 0.02 | 0.00 | 73 | 1016.1 |
| 20260504195417 | 46 | 276 | 3.0 | 5.0 | 0.00 | 0.02 | 0.00 | 72 | 1015.9 |
| 20260504194218 | 46 | 224 | 3.0 | 5.0 | 0.00 | 0.18 | 0.00 | 74 | 1015.5 |
| 20260504193017 | 47 | 280 | 1.0 | 2.0 | 0.00 | 0.18 | 0.00 | 75 | 1015.6 |
| 20260504191817 | 47 | 287 | 3.0 | 5.0 | 0.00 | 0.18 | 0.00 | 74 | 1015.6 |
| 20260504190619 | 47 | 223 | 3.0 | 5.0 | 0.00 | 0.18 | 0.00 | 72 | 1015.1 |
| 20260504185417 | 48 | 259 | 3.0 | 5.0 | 0.00 | 0.18 | 0.00 | 73 | 1015.2 |
| 20260504184218 | 49 | 210 | 3.0 | 5.0 | 0.00 | 0.18 | 0.00 | 72 | 1015.1 |
| 20260504183016 | 50 | 202 | 3.0 | 5.0 | 0.00 | 0.24 | 0.00 | 68 | 1014.8 |
| 20260504181818 | 51 | 226 | 1.0 | 1.0 | 0.00 | 0.24 | 0.00 | 63 | 1014.8 |
| 20260504180619 | 51 | 262 | 2.0 | 3.0 | 0.00 | 0.24 | 0.00 | 60 | 1014.6 |
| 20260504175419 | 53 | 304 | 6.0 | 10.0 | 0.00 | 0.25 | 0.00 | 54 | 1014.3 |
| 20260504174217 | 53 | 302 | 6.0 | 9.0 | 0.00 | 0.25 | 0.00 | 57 | 1014.0 |
| 20260504173016 | 53 | 273 | 3.0 | 6.0 | 0.00 | 0.25 | 0.00 | 57 | 1014.0 |
| 20260504171816 | 54 | 295 | 2.0 | 5.0 | 0.00 | 0.25 | 0.00 | 58 | 1013.9 |
| 20260504150617 | 57 | 285 | 9.0 | 14.0 | 0.00 | 0.25 | 0.00 | 56 | 1010.3 |